Current weather by "City, St" or "zip code"  
 

Current Conditions: STERLING ROCKFAL

Clear


59.0 F

Last Updated on May 26 2024, 02:56 AM CDT
Humidity: 67%
Wind Speed: 6.9 mph
Barometer 29.76 in
Dewpoint: 48.0 F
Visibility: 10.00 mi
Precip: --
Heat Index: NA
Wind Chill: NA
Current conditions at:

STERLING ROCKFAL (KSQI)

Lat: 41.75 Lon: 89.67

active severe weather and emergency alerts image image weather storm and storm spotter reports image weather observation monitoring service image
Active
Alerts
Storm Reports Obs
Monitoring

Sign-up For Email & Text Message Weather Alert Notification Services



Advertise Here

Observation History for STERLING ROCKFAL


Time Wind
(mph)
Vis
(mi)
Weather Precip (in) Temperature (F) Relative
Humidity
Wind
Chill
(F)
Heat
Index
(F)
Pressure
Air Dwpt altimeter
(in)
sea level
(mb)
Rmks
02:56 AM CDT 6.9 10.00 Clear -- 59.0 48.0 67% NA NA 29.76 1007.8
01:56 AM CDT 8.1 10.00 Clear -- 61.0 46.0 58% NA NA 29.79 1008.8
11:56 PM CDT 8.1 10.00 Clear -- 64.0 48.9 58% NA NA 29.83 1010.2
10:56 PM CDT 10.3 10.00 Clear -- 64.9 52.0 63% NA NA 29.84 1010.5
08:56 PM CDT 0.0 10.00 Clear -- 64.0 59.0 84% NA NA 29.84 1010.5
07:56 PM CDT 0.0 10.00 Clear -- NULL 57.9 % NA NA 29.85 1010.8
05:56 PM CDT E 8.1 10.00 Clear -- 75.9 50.0 40% NA 75.0 29.86 1011.2
04:56 PM CDT 3.4 10.00 Clear -- 75.0 48.9 40% NA 74.1 29.87 1011.5
03:56 PM CDT 3.4 10.00 NULL -- 75.0 53.1 46% NA 74.5 29.88 1011.9
02:56 PM CDT NE 4.7 10.00 Clear -- 72.0 52.0 49% NA 71.2 29.88 1011.9
01:56 PM CDT 0.0 10.00 Clear -- 71.1 51.1 49% NA 70.2 29.90 1012.5
11:56 AM CDT 4.7 10.00 Clear -- 69.1 48.9 49% NA NA 29.91 1012.9
10:56 AM CDT 5.8 10.00 Clear -- 66.0 48.0 52% NA NA 29.92 1013.2
09:56 AM CDT NW 4.7 10.00 NULL -- 64.0 46.9 54% NA NA 29.92 1013.2
08:56 AM CDT 6.9 10.00 Clear -- 61.0 46.9 60% NA NA 29.94 1013.6
07:56 AM CDT NW 8.1 10.00 Clear -- 57.9 46.9 67% NA NA 29.92 1013.2
05:56 AM CDT W 5.8 10.00 Clear -- 51.1 48.0 89% NA NA 29.90 1012.5
04:56 AM CDT NW 8.1 10.00 Clear -- 53.1 48.9 86% NA NA 29.88 1011.9
02:56 AM CDT NW 6.9 10.00 Clear -- 55.9 53.1 90% NA NA 29.83 1010.2
01:56 AM CDT W 10.3 10.00 NULL -- 57.9 55.0 90% NA NA 29.81 1009.5
11:56 PM CDT 10.00 Mostly Cloudy -- 63.0 59.0 87% NA NA 29.78 1008.5
11:32 PM CDT 10.00 Cloudy -- 66.2 66.2 100% NA NA 29.77 1008.1
10:56 PM CDT 5.8 10.00 Cloudy -- 66.0 66.0 100% NA NA 29.75 1007.5
10:26 PM CDT 6.9 10.00 Light Rain -- 64.4 64.4 100% NA NA 29.75 1007.5

Regional Weather Observation


()


F

FREEPORT (KFEP)

Clear
54.9 F

CLINTON MUNI (KCWI)

NULL
61.0 F

ROCHELLE/KORITZ (KRPJ)

Clear
56.8 F

ROCKFORD (KRFD)

NULL
61.0 F

DAVENPORT/QUAD C (KDVN)

NULL
62.1 F

Advertise Here


Advertise Here